QPF
0.00 0.00 0.00 0.00 0.00 0.00 0.00 0.00 0.00 0.00 0.00 0.00 0.00 0.00 0.00 0.00 0.00 0.00 0.00 0.00 0.00 0.00 0.00 0.00 0.00 0.00 0.00 0.00 0.00 0.00 0.00 0.01 0.01 0.01 0.02 0.02 0.03 0.03
0.00 0.00 0.00 0.00 0.00 0.00 0.00 0.00 0.00 0.00 0.00 0.00 0.00 0.00 0.00 0.00 0.00 0.00 0.00 0.00 0.00 0.00 0.00 0.00 0.00 0.00 0.00 0.00 0.00 0.01 0.01 0.01 0.02 0.02 0.02 0.03 0.03 0.03
0.01 0.01 0.00 0.00 0.00 0.00 0.00 0.00 0.00 0.00 0.00 0.00 0.00 0.00 0.00 0.00 0.00 0.00 0.00 0.00 0.00 0.00 0.00 0.00 0.00 0.00 0.00 0.00 0.01 0.01 0.01 0.01 0.01 0.01 0.02 0.02 0.02 0.02
0.01 0.00 0.00 0.00 0.00 0.00 0.00 0.00 0.00 0.00 0.00 0.00 0.00 0.00 0.00 0.00 0.01 0.01 0.00 0.00 0.00 0.00 0.00 0.00 0.00 0.00 0.00 0.00 0.00 0.00 0.00 0.00 0.00 0.00 0.01 0.01 0.01 0.02
0.00 0.00 0.00 0.00 0.00 0.00 0.00 0.00 0.01 0.00 0.01 0.01 0.00 0.01 0.01 0.01 0.01 0.01 0.01 0.01 0.01 0.00 0.00 0.00 0.00 0.00 0.00 0.00 0.00 0.00 0.00 0.00 0.00 0.00 0.00 0.00 0.00 0.01
0.00 0.00 0.00 0.00 0.00 0.01 0.01 0.01 0.01 0.01 0.01 0.01 0.01 0.01 0.01 0.01 0.02 0.01 0.01 0.01 0.01 0.00 0.00 0.00 0.00 0.00 0.00 0.00 0.00 0.00 0.00 0.00 0.00 0.00 0.00 0.00 0.00 0.00
0.00 0.00 0.00 0.00 0.00 0.00 0.00 0.01 0.01 0.02 0.01 0.01 0.01 0.01 0.01 0.02 0.02 0.02 0.02 0.02 0.01 0.01 0.02 0.02 0.01 0.01 0.02 0.01 0.01 0.00 0.00 0.00 0.00 0.00 0.00 0.00 0.00 0.00
0.00 0.00 0.00 0.00 0.00 0.00 0.00 0.00 0.01 0.01 0.01 0.01 0.01 0.02 0.02 0.03 0.04 0.03 0.03 0.03 0.02 0.02 0.03 0.02 0.01 0.02 0.03 0.02 0.01 0.00 0.00 0.00 0.00 0.00 0.00 0.00 0.00 0.00
0.00 0.00 0.00 0.00 0.00 0.00 0.00 0.00 0.01 0.01 0.01 0.01 0.02 0.03 0.03 0.04 0.04 0.03 0.03 0.03 0.03 0.03 0.04 0.02 0.02 0.03 0.02 0.01 0.00 0.00 0.00 0.00 0.00 0.00 0.00 0.00 0.00 0.00
0.00 0.00 0.00 0.01 0.00 0.00 0.00 0.00 0.01 0.02 0.02 0.02 0.03 0.03 0.03 0.03 0.03 0.02 0.02 0.02 0.02 0.03 0.04 0.03 0.02 0.02 0.02 0.03 0.02 0.00 0.00 0.00 0.00 0.00 0.00 0.00 0.00 0.00
0.00 0.00 0.00 0.01 0.00 0.00 0.00 0.01 0.02 0.03 0.02 0.01 0.01 0.01 0.01 0.01 0.01 0.01 0.03 0.03 0.03 0.02 0.03 0.03 0.03 0.02 0.01 0.03 0.03 0.01 0.00 0.00 0.00 0.00 0.00 0.00 0.01 0.01
0.00 0.01 0.00 0.00 0.00 0.00 0.00 0.01 0.02 0.03 0.03 0.03 0.03 0.02 0.03 0.02 0.01 0.02 0.04 0.04 0.04 0.03 0.03 0.04 0.04 0.04 0.03 0.02 0.03 0.05 0.04 0.03 0.01 0.01 0.01 0.01 0.01 0.03
0.01 0.01 0.01 0.00 0.00 0.00 0.00 0.01 0.02 0.01 0.02 0.03 0.03 0.04 0.04 0.04 0.04 0.03 0.03 0.03 0.03 0.04 0.04 0.04 0.04 0.04 0.05 0.04 0.02 0.03 0.05 0.05 0.05 0.04 0.03 0.02 0.01 0.02
0.01 0.02 0.01 0.00 0.00 0.01 0.01 0.01 0.01 0.01 0.03 0.04 0.05 0.05 0.05 0.04 0.03 0.03 0.03 0.03 0.03 0.03 0.04 0.05 0.05 0.05 0.06 0.05 0.03 0.02 0.03 0.05 0.05 0.05 0.05 0.04 0.04 0.03
0.01 0.00 0.00 0.00 0.00 0.03 0.02 0.01 0.01 0.04 0.05 0.05 0.05 0.05 0.04 0.04 0.04 0.04 0.04 0.05 0.05 0.04 0.03 0.04 0.06 0.06 0.06 0.06 0.04 0.04 0.03 0.04 0.05 0.06 0.06 0.05 0.06 0.06
0.01 0.02 0.01 0.01 0.02 0.03 0.03 0.04 0.05 0.04 0.03 0.05 0.06 0.06 0.05 0.05 0.05 0.03 0.04 0.05 0.05 0.05 0.04 0.05 0.06 0.05 0.04 0.04 0.04 0.04 0.04 0.05 0.05 0.06 0.06 0.05 0.05 0.05
0.02 0.04 0.05 0.05 0.04 0.05 0.05 0.06 0.06 0.05 0.05 0.06 0.07 0.07 0.08 0.07 0.05 0.03 0.04 0.05 0.05 0.04 0.04 0.04 0.05 0.06 0.04 0.02 0.03 0.03 0.04 0.05 0.06 0.06 0.06 0.06 0.05 0.05
0.04 0.06 0.05 0.04 0.04 0.03 0.04 0.05 0.05 0.05 0.04 0.04 0.06 0.07 0.07 0.06 0.06 0.05 0.05 0.06 0.06 0.04 0.04 0.03 0.03 0.04 0.04 0.03 0.02 0.03 0.03 0.04 0.05 0.05 0.05 0.05 0.05 0.04
0.03 0.04 0.03 0.03 0.03 0.04 0.04 0.04 0.04 0.03 0.03 0.03 0.04 0.05 0.05 0.05 0.05 0.05 0.05 0.05 0.06 0.05 0.04 0.04 0.04 0.04 0.03 0.03 0.04 0.02 0.02 0.03 0.04 0.04 0.04 0.04 0.05 0.05
0.02 0.02 0.02 0.02 0.02 0.02 0.03 0.03 0.03 0.02 0.02 0.02 0.02 0.03 0.05 0.06 0.05 0.04 0.04 0.04 0.05 0.05 0.05 0.04 0.03 0.04 0.04 0.04 0.04 0.03 0.01 0.01 0.02 0.03 0.04 0.06 0.06 0.04
0.01 0.01 0.01 0.01 0.01 0.01 0.01 0.01 0.01 0.01 0.01 0.01 0.01 0.02 0.03 0.04 0.05 0.04 0.04 0.02 0.03 0.05 0.05 0.04 0.03 0.02 0.05 0.04 0.04 0.05 0.03 0.01 0.01 0.01 0.02 0.03 0.04 0.03
0.00 0.00 0.00 0.00 0.00 0.00 0.00 0.00 0.01 0.00 0.00 0.00 0.00 0.00 0.01 0.02 0.03 0.02 0.03 0.04 0.04 0.04 0.05 0.04 0.04 0.04 0.05 0.04 0.05 0.05 0.05 0.03 0.01 0.00 0.00 0.00 0.01 0.01
0.00 0.00 0.00 0.00 0.00 0.00 0.00 0.00 0.00 0.00 0.00 0.00 0.00 0.00 0.00 0.01 0.01 0.01 0.02 0.02 0.02 0.03 0.04 0.05 0.05 0.04 0.04 0.05 0.05 0.05 0.04 0.04 0.03 0.02 0.01 0.01 0.01 0.01
MSLP
1022.32 1022.30 1022.27 1022.20 1022.09 1021.94 1021.74 1021.52 1021.29 1021.08 1020.91 1020.79 1020.73 1020.73 1020.78 1020.86 1020.95 1021.02 1021.06 1021.07 1021.03 1020.96 1020.88 1020.78 1020.68 1020.59 1020.49 1020.39 1020.26 1020.10 1019.89 1019.64 1019.34 1019.01 1018.66 1018.32 1018.00 1017.72
1022.81 1022.78 1022.73 1022.66 1022.55 1022.39 1022.18 1021.93 1021.67 1021.40 1021.15 1020.94 1020.78 1020.67 1020.60 1020.56 1020.54 1020.52 1020.48 1020.42 1020.33 1020.23 1020.12 1020.02 1019.93 1019.85 1019.78 1019.71 1019.62 1019.50 1019.33 1019.11 1018.84 1018.53 1018.19 1017.85 1017.53 1017.23
1023.23 1023.17 1023.12 1023.04 1022.94 1022.79 1022.59 1022.33 1022.05 1021.74 1021.43 1021.13 1020.87 1020.64 1020.45 1020.28 1020.14 1020.01 1019.87 1019.73 1019.58 1019.43 1019.29 1019.17 1019.08 1019.01 1018.96 1018.91 1018.86 1018.78 1018.66 1018.49 1018.26 1017.98 1017.67 1017.35 1017.03 1016.72
1023.56 1023.48 1023.41 1023.33 1023.24 1023.10 1022.92 1022.67 1022.38 1022.05 1021.69 1021.32 1020.96 1020.63 1020.32 1020.03 1019.77 1019.52 1019.29 1019.06 1018.85 1018.65 1018.47 1018.33 1018.21 1018.14 1018.09 1018.06 1018.03 1017.98 1017.89 1017.76 1017.57 1017.34 1017.07 1016.77 1016.46 1016.17
1023.81 1023.69 1023.60 1023.52 1023.43 1023.31 1023.14 1022.91 1022.61 1022.27 1021.88 1021.46 1021.03 1020.60 1020.19 1019.81 1019.44 1019.10 1018.78 1018.48 1018.21 1017.95 1017.73 1017.55 1017.41 1017.31 1017.24 1017.20 1017.16 1017.12 1017.05 1016.94 1016.79 1016.60 1016.36 1016.10 1015.82 1015.53
1023.99 1023.84 1023.71 1023.61 1023.52 1023.40 1023.23 1023.01 1022.72 1022.36 1021.95 1021.49 1021.01 1020.53 1020.05 1019.59 1019.16 1018.75 1018.37 1018.02 1017.69 1017.40 1017.14 1016.91 1016.73 1016.58 1016.46 1016.38 1016.31 1016.25 1016.17 1016.07 1015.94 1015.77 1015.57 1015.34 1015.09 1014.83
1024.11 1023.92 1023.76 1023.63 1023.51 1023.37 1023.20 1022.97 1022.68 1022.32 1021.89 1021.41 1020.90 1020.38 1019.87 1019.37 1018.90 1018.47 1018.06 1017.68 1017.33 1017.01 1016.71 1016.44 1016.20 1015.99 1015.82 1015.67 1015.54 1015.43 1015.31 1015.20 1015.06 1014.90 1014.72 1014.52 1014.30 1014.06
1024.19 1023.95 1023.75 1023.59 1023.43 1023.27 1023.07 1022.83 1022.52 1022.14 1021.70 1021.21 1020.69 1020.16 1019.63 1019.13 1018.66 1018.23 1017.83 1017.46 1017.11 1016.78 1016.45 1016.15 1015.85 1015.58 1015.33 1015.09 1014.89 1014.70 1014.53 1014.37 1014.21 1014.05 1013.88 1013.69 1013.49 1013.29
1024.23 1023.97 1023.73 1023.52 1023.32 1023.11 1022.88 1022.59 1022.25 1021.85 1021.40 1020.90 1020.38 1019.85 1019.35 1018.87 1018.43 1018.03 1017.66 1017.32 1016.99 1016.66 1016.34 1016.01 1015.67 1015.33 1015.00 1014.68 1014.39 1014.12 1013.87 1013.65 1013.45 1013.26 1013.08 1012.90 1012.72 1012.53
1024.27 1023.97 1023.70 1023.44 1023.19 1022.94 1022.65 1022.32 1021.94 1021.51 1021.04 1020.53 1020.01 1019.50 1019.01 1018.57 1018.17 1017.82 1017.50 1017.21 1016.92 1016.63 1016.31 1015.97 1015.61 1015.22 1014.83 1014.43 1014.05 1013.70 1013.37 1013.08 1012.83 1012.60 1012.39 1012.20 1012.02 1011.85
1024.32 1024.00 1023.69 1023.38 1023.08 1022.76 1022.42 1022.04 1021.61 1021.14 1020.64 1020.12 1019.60 1019.10 1018.64 1018.24 1017.89 1017.59 1017.33 1017.09 1016.86 1016.61 1016.32 1015.99 1015.62 1015.21 1014.77 1014.32 1013.87 1013.44 1013.04 1012.69 1012.37 1012.09 1011.85 1011.64 1011.45 1011.27
1024.38 1024.03 1023.68 1023.33 1022.97 1022.59 1022.19 1021.76 1021.28 1020.78 1020.25 1019.71 1019.18 1018.69 1018.25 1017.87 1017.56 1017.30 1017.10 1016.92 1016.74 1016.54 1016.30 1016.01 1015.65 1015.25 1014.79 1014.31 1013.82 1013.34 1012.88 1012.47 1012.09 1011.77 1011.49 1011.25 1011.04 1010.85
1024.45 1024.07 1023.67 1023.26 1022.85 1022.42 1021.96 1021.47 1020.96 1020.41 1019.85 1019.29 1018.76 1018.26 1017.83 1017.47 1017.18 1016.96 1016.79 1016.66 1016.54 1016.40 1016.21 1015.97 1015.66 1015.28 1014.85 1014.37 1013.87 1013.36 1012.88 1012.42 1012.01 1011.64 1011.32 1011.05 1010.81 1010.60
1024.51 1024.07 1023.62 1023.15 1022.68 1022.20 1021.69 1021.16 1020.61 1020.04 1019.45 1018.88 1018.33 1017.83 1017.39 1017.03 1016.75 1016.55 1016.41 1016.32 1016.24 1016.16 1016.03 1015.85 1015.61 1015.29 1014.91 1014.47 1013.99 1013.50 1013.01 1012.54 1012.10 1011.71 1011.37 1011.06 1010.80 1010.56
1024.51 1024.00 1023.48 1022.96 1022.44 1021.91 1021.37 1020.81 1020.23 1019.64 1019.05 1018.46 1017.89 1017.38 1016.94 1016.57 1016.29 1016.09 1015.97 1015.90 1015.87 1015.83 1015.77 1015.67 1015.50 1015.26 1014.95 1014.58 1014.16 1013.71 1013.25 1012.80 1012.37 1011.97 1011.61 1011.29 1011.01 1010.75
1024.41 1023.83 1023.24 1022.66 1022.10 1021.54 1020.97 1020.40 1019.82 1019.23 1018.63 1018.04 1017.47 1016.95 1016.50 1016.12 1015.83 1015.63 1015.51 1015.46 1015.45 1015.47 1015.47 1015.44 1015.35 1015.21 1014.99 1014.70 1014.36 1013.98 1013.57 1013.16 1012.77 1012.39 1012.04 1011.72 1011.43 1011.16
1024.20 1023.54 1022.90 1022.28 1021.69 1021.11 1020.55 1019.98 1019.41 1018.83 1018.25 1017.66 1017.10 1016.58 1016.11 1015.72 1015.42 1015.21 1015.09 1015.04 1015.06 1015.11 1015.17 1015.20 1015.20 1015.14 1015.01 1014.82 1014.57 1014.27 1013.94 1013.60 1013.25 1012.92 1012.61 1012.31 1012.03 1011.77
1023.89 1023.18 1022.51 1021.87 1021.27 1020.70 1020.16 1019.61 1019.07 1018.52 1017.95 1017.39 1016.83 1016.31 1015.84 1015.44 1015.12 1014.90 1014.77 1014.72 1014.75 1014.82 1014.92 1015.01 1015.07 1015.09 1015.04 1014.94 1014.77 1014.56 1014.31 1014.05 1013.77 1013.49 1013.23 1012.98 1012.74 1012.50
1023.55 1022.83 1022.15 1021.52 1020.94 1020.40 1019.89 1019.38 1018.87 1018.35 1017.81 1017.27 1016.72 1016.20 1015.73 1015.31 1014.98 1014.74 1014.60 1014.55 1014.57 1014.66 1014.77 1014.89 1014.99 1015.06 1015.07 1015.03 1014.94 1014.80 1014.62 1014.43 1014.22 1014.02 1013.82 1013.62 1013.43 1013.24
1023.27 1022.58 1021.93 1021.35 1020.81 1020.31 1019.84 1019.37 1018.90 1018.41 1017.89 1017.36 1016.82 1016.30 1015.81 1015.39 1015.04 1014.78 1014.62 1014.55 1014.56 1014.63 1014.73 1014.85 1014.97 1015.05 1015.09 1015.08 1015.03 1014.94 1014.82 1014.68 1014.53 1014.40 1014.26 1014.13 1014.01 1013.87
1023.16 1022.53 1021.95 1021.42 1020.94 1020.50 1020.07 1019.64 1019.19 1018.71 1018.21 1017.68 1017.13 1016.60 1016.10 1015.65 1015.28 1015.00 1014.81 1014.71 1014.69 1014.73 1014.80 1014.90 1014.99 1015.05 1015.08 1015.07 1015.02 1014.95 1014.85 1014.75 1014.65 1014.56 1014.49 1014.42 1014.36 1014.28
1023.27 1022.73 1022.23 1021.78 1021.37 1020.97 1020.58 1020.17 1019.74 1019.26 1018.74 1018.20 1017.63 1017.08 1016.55 1016.08 1015.68 1015.36 1015.14 1015.00 1014.93 1014.93 1014.96 1015.00 1015.03 1015.05 1015.03 1014.99 1014.91 1014.82 1014.72 1014.62 1014.54 1014.49 1014.45 1014.44 1014.43 1014.41
1023.61 1023.17 1022.77 1022.40 1022.05 1021.69 1021.32 1020.92 1020.47 1019.97 1019.43 1018.85 1018.25 1017.66 1017.10 1016.60 1016.16 1015.81 1015.55 1015.37 1015.25 1015.19 1015.16 1015.13 1015.10 1015.04 1014.96 1014.85 1014.72 1014.58 1014.45 1014.34 1014.25 1014.21 1014.20 1014.21 1014.24 1014.27
Thickness
5595 5592 5589 5586 5583 5579 5576 5574 5571 5572 5572 5568 5560 5553 5544 5538 5534 5529 5527 5525 5520 5516 5512 5509 5507 5504 5503 5500 5498 5497 5495 5494 5492 5490 5489 5488 5488 5488
5577 5574 5571 5570 5566 5563 5560 5556 5552 5549 5549 5548 5540 5534 5525 5517 5516 5513 5512 5509 5506 5503 5498 5494 5492 5490 5489 5487 5485 5484 5483 5481 5479 5478 5477 5476 5476 5476
5560 5557 5554 5549 5548 5545 5542 5538 5534 5529 5525 5523 5518 5513 5506 5502 5500 5498 5497 5496 5496 5493 5487 5483 5480 5478 5477 5476 5474 5473 5471 5469 5468 5467 5466 5465 5465 5465
5543 5540 5537 5533 5528 5525 5521 5518 5514 5507 5502 5501 5498 5496 5493 5489 5488 5485 5485 5485 5482 5480 5477 5473 5471 5469 5468 5466 5464 5463 5462 5459 5458 5457 5456 5455 5455 5455
5525 5521 5517 5513 5509 5506 5500 5498 5494 5491 5486 5484 5483 5481 5480 5479 5477 5476 5474 5472 5470 5471 5469 5468 5465 5462 5461 5460 5458 5457 5455 5452 5450 5449 5448 5447 5446 5446
5506 5502 5498 5494 5490 5485 5483 5480 5477 5475 5473 5471 5471 5471 5470 5468 5466 5466 5466 5464 5461 5461 5461 5460 5459 5458 5458 5457 5455 5452 5449 5446 5444 5442 5441 5440 5439 5438
5489 5484 5480 5474 5469 5465 5465 5464 5462 5462 5461 5461 5462 5462 5461 5458 5457 5455 5454 5453 5453 5454 5455 5455 5455 5455 5454 5453 5451 5447 5443 5440 5438 5436 5434 5433 5431 5430
5474 5469 5467 5464 5458 5453 5451 5448 5446 5447 5450 5449 5451 5452 5450 5449 5447 5445 5444 5445 5447 5448 5447 5449 5449 5450 5449 5448 5446 5441 5437 5434 5432 5429 5428 5426 5424 5423
5459 5456 5454 5452 5447 5446 5444 5442 5442 5441 5438 5439 5442 5442 5443 5441 5439 5439 5438 5438 5440 5442 5442 5444 5445 5444 5444 5444 5440 5436 5432 5429 5426 5423 5421 5419 5418 5417
5448 5444 5441 5439 5438 5432 5434 5438 5440 5442 5439 5438 5438 5437 5438 5436 5434 5434 5433 5435 5437 5440 5439 5439 5441 5439 5440 5438 5434 5430 5426 5423 5420 5417 5415 5413 5412 5411
5439 5436 5432 5431 5425 5423 5426 5433 5438 5439 5439 5437 5436 5435 5434 5433 5430 5431 5435 5436 5438 5438 5435 5433 5433 5432 5434 5434 5430 5425 5421 5418 5415 5412 5410 5408 5407 5406
5433 5431 5428 5424 5421 5421 5424 5431 5434 5437 5438 5439 5439 5439 5438 5438 5434 5432 5434 5435 5435 5434 5432 5427 5426 5424 5425 5427 5425 5421 5418 5414 5411 5409 5406 5404 5402 5403
5428 5429 5428 5422 5422 5422 5423 5429 5431 5431 5436 5440 5442 5443 5444 5443 5441 5438 5435 5433 5432 5431 5428 5423 5422 5419 5417 5417 5419 5417 5414 5411 5409 5406 5404 5401 5400 5399
5424 5426 5426 5423 5424 5426 5429 5431 5431 5432 5439 5442 5445 5447 5447 5446 5444 5442 5438 5435 5431 5429 5426 5422 5419 5416 5414 5414 5412 5412 5411 5407 5405 5404 5403 5400 5399 5398
5424 5424 5424 5426 5428 5433 5434 5434 5435 5440 5443 5446 5448 5449 5448 5447 5445 5443 5441 5437 5434 5431 5427 5423 5419 5416 5413 5410 5407 5406 5406 5405 5403 5402 5401 5399 5398 5398
5427 5429 5429 5432 5434 5435 5438 5441 5443 5445 5446 5447 5448 5450 5450 5449 5448 5446 5443 5440 5437 5434 5429 5425 5421 5417 5414 5410 5407 5405 5404 5402 5402 5401 5400 5399 5397 5397
5425 5432 5436 5439 5442 5444 5445 5446 5447 5449 5450 5450 5451 5452 5452 5452 5450 5448 5444 5440 5438 5434 5431 5427 5423 5418 5413 5408 5407 5404 5404 5403 5403 5402 5402 5400 5398 5397
5428 5436 5440 5442 5443 5445 5447 5449 5450 5451 5452 5452 5452 5452 5452 5452 5450 5449 5446 5441 5439 5436 5432 5429 5426 5423 5417 5412 5402 5404 5405 5404 5404 5404 5404 5404 5402 5399
5436 5439 5441 5442 5443 5445 5447 5448 5450 5451 5451 5452 5452 5452 5452 5451 5450 5449 5447 5443 5440 5437 5433 5430 5426 5424 5421 5416 5410 5402 5404 5406 5406 5407 5407 5406 5404 5401
5439 5440 5441 5442 5443 5444 5446 5448 5449 5451 5452 5452 5452 5451 5450 5450 5450 5448 5447 5443 5441 5438 5436 5432 5429 5424 5421 5417 5413 5408 5404 5406 5408 5410 5411 5410 5409 5405
5440 5440 5441 5441 5442 5443 5445 5447 5448 5450 5450 5451 5451 5450 5450 5450 5449 5449 5447 5441 5441 5440 5438 5434 5430 5424 5424 5422 5419 5415 5411 5406 5406 5407 5413 5416 5416 5413
5438 5438 5439 5440 5442 5443 5445 5447 5448 5449 5449 5450 5450 5450 5450 5450 5450 5449 5448 5447 5445 5443 5440 5438 5435 5433 5431 5428 5425 5422 5419 5416 5411 5409 5408 5409 5412 5411
5435 5436 5439 5441 5441 5442 5443 5444 5445 5447 5447 5447 5448 5448 5450 5450 5450 5450 5449 5448 5447 5446 5444 5442 5440 5439 5437 5435 5432 5429 5427 5424 5422 5419 5415 5410 5409 5407